Content
SEND FEEDBACK

Daily
Averages
Monthly
Summary
United States of America

AUBURN, CALIFORNIA


Home > North America > United States > California
Elevation: 1279 feet     Latitude: 38 53N     Longitude: 121 04W

WEATHER
 
SELECT A DAY
Number of Records: 300,469;   Date Range: 8/19/02 - 11/26/14
 
SHARE

PRINT THIS DATA

[ ← Previous Day ]
WEATHER ALMANAC - MAY 6, 2013
[ Next Day → ]
[ °C ]   °F
Weather ElementAverageHighLow
Temperature58.2 °F66.2 °F (2:15 pm)51.8 °F (6:35 am)
Dewpoint50.4 °F53.6 °F (9:55 am)44.6 °F (12:35 am)
Humidity77 %100 % (6:35 am)52 % (6:15 pm)
Barometer29.89 in29.96 in (11:15 pm)29.83 in (12:35 am)
Wind Speed3.6 mph9.2 mph (6:35 pm)
Weather ElementAverage
Visibility8.4 mi
Wind DirectionE (87.2 °)

Weather ElementTotal
Precipitation0.84 in
Heating Degree Days6 (Base 65)
Growing Degree Days9 (Base 50)
Averaged from 68 records on May 6, 2013
WEATHER CONDITIONS BREAKOUT
WIND DIRECTION BREAKOUT
WEATHER BY HOUR - MAY 6, 2013
[ °C ]   °F
Local TimeTemperatureDewpointHumidityBarometerVisibilityWind DirectionWind SpeedGust SpeedPrecipitationEventsConditions
12:35 AM60.8 °F44.6 °F55 %29.83 in10.0 miSE (140°)4.6 mphScattered Clouds
12:55 AM59.0 °F44.6 °F59 %29.84 in10.0 miEast (100°)3.5 mphMostly Cloudy
1:15 AM60.8 °F44.6 °F55 %29.84 in10.0 miCalmMostly Cloudy
1:35 AM60.8 °F44.6 °F55 %29.84 in10.0 miSE (140°)3.5 mphMostly Cloudy
1:55 AM59.0 °F44.6 °F59 %29.84 in10.0 miCalmScattered Clouds
2:15 AM57.2 °F46.4 °F67 %29.84 in10.0 miSouth (190°)3.5 mphMostly Cloudy
2:35 AM59.0 °F44.6 °F59 %29.84 in10.0 miSouth (180°)3.5 mphMostly Cloudy
2:55 AM57.2 °F46.4 °F67 %29.84 in10.0 miSouth (190°)4.6 mphMostly Cloudy
3:15 AM57.2 °F48.2 °F72 %29.84 in10.0 miCalmMostly Cloudy
3:35 AM57.2 °F48.2 °F72 %29.84 in9.0 miCalmScattered Clouds
3:55 AM57.2 °F50.0 °F77 %29.84 in10.0 miCalmScattered Clouds
4:15 AM55.4 °F51.8 °F88 %29.85 in9.0 miCalmMostly Cloudy
4:35 AM55.4 °F51.8 °F88 %29.85 in8.0 miESE (110°)5.8 mph0.01 inOvercast
4:55 AM53.6 °F51.8 °F94 %29.86 in4.0 miESE (120°)6.9 mph0.04 inOvercast
5:15 AM53.6 °F51.8 °F94 %29.87 in5.0 miESE (110°)6.9 mph0.02 inOvercast
5:35 AM53.6 °F51.8 °F94 %29.87 in4.0 miEast (100°)5.8 mph0.04 inOvercast
5:55 AM53.6 °F51.8 °F94 %29.87 in5.0 miSE (130°)4.6 mph0.08 inOvercast
6:15 AM53.6 °F51.8 °F94 %29.87 in4.0 miSE (130°)5.8 mph0.02 inMostly Cloudy
6:35 AM51.8 °F51.8 °F100 %29.87 in5.0 miEast (100°)5.8 mph0.07 inOvercast
6:55 AM51.8 °F51.8 °F100 %29.87 in5.0 miEast (80°)3.5 mph0.12 inOvercast
7:15 AM51.8 °F51.8 °F100 %29.88 in5.0 miEast (100°)6.9 mph0.03 inOvercast
7:35 AM51.8 °F51.8 °F100 %29.89 in4.0 miEast (100°)8.1 mph0.06 inOvercast
7:55 AM51.8 °F51.8 °F100 %29.89 in5.0 miEast (80°)5.8 mph0.08 inOvercast
8:15 AM51.8 °F51.8 °F100 %29.89 in5.0 miEast (80°)5.8 mph0.01 inMostly Cloudy
8:35 AM53.6 °F51.8 °F94 %29.90 in5.0 miEast (90°)6.9 mph0.03 inMostly Cloudy
8:55 AM53.6 °F51.8 °F94 %29.90 in6.0 miEast (100°)8.1 mph0.04 inMostly Cloudy
9:15 AM53.6 °F51.8 °F94 %29.91 in5.0 miEast (90°)4.6 mph0.02 inOvercast
9:35 AM53.6 °F51.8 °F94 %29.91 in5.0 miEast (80°)5.8 mph0.04 inOvercast
9:55 AM53.6 °F53.6 °F100 %29.92 in5.0 miEast (80°)3.5 mph0.06 inOvercast
10:15 AM55.4 °F53.6 °F94 %29.92 in5.0 miENE (70°)3.5 mph0.01 inOvercast
10:35 AM55.4 °F53.6 °F94 %29.92 in6.0 miCalm0.02 inOvercast
10:55 AM55.4 °F53.6 °F94 %29.93 in6.0 miNE (50°)3.5 mph0.03 inMostly Cloudy
11:15 AM55.4 °F51.8 °F88 %29.93 in9.0 miENE (60°)3.5 mphOvercast
11:35 AM55.4 °F53.6 °F94 %29.93 in6.0 miCalmOvercast
11:55 AM57.2 °F53.6 °F88 %29.93 in8.0 miEast (80°)4.6 mphMostly Cloudy
12:15 PM57.2 °F53.6 °F88 %29.93 in10.0 miNE (50°)3.5 mphPartly Cloudy
12:35 PM60.8 °F51.8 °F72 %29.93 in10.0 miEast (80°)4.6 mphPartly Cloudy
12:55 PM62.6 °F51.8 °F68 %29.92 in10.0 miENE (70°)3.5 mph0.01 inPartly Cloudy
1:15 PM62.6 °F50.0 °F63 %29.92 in10.0 miNorth (10°)4.6 mphScattered Clouds
1:35 PM62.6 °F50.0 °F63 %29.91 in10.0 miNW (310°)6.9 mphClear
1:55 PM64.4 °F50.0 °F59 %29.91 in10.0 miNNW (340°)5.8 mphClear
2:15 PM66.2 °F50.0 °F56 %29.91 in10.0 miNorth (10°)5.8 mphPartly Cloudy
2:35 PM64.4 °F48.2 °F56 %29.91 in10.0 miNW (320°)4.6 mphScattered Clouds
2:55 PM64.4 °F48.2 °F56 %29.91 in10.0 miNNE (30°)4.6 mphOvercast
3:15 PM64.4 °F50.0 °F59 %29.91 in10.0 miNNW (330°)4.6 mphOvercast
3:35 PM64.4 °F51.8 °F64 %29.90 in10.0 miNNW (340°)4.6 mphMostly Cloudy
4:15 PM64.4 °F51.8 °F64 %29.89 in10.0 miCalmMostly Cloudy
4:35 PM64.4 °F50.0 °F59 %29.89 in10.0 miENE (60°)4.6 mphMostly Cloudy
4:55 PM62.6 °F51.8 °F68 %29.88 in10.0 miEast (80°)3.5 mphOvercast
5:15 PM62.6 °F51.8 °F68 %29.88 in10.0 miEast (80°)5.8 mphMostly Cloudy
5:35 PM64.4 °F50.0 °F59 %29.88 in10.0 miEast (100°)4.6 mphScattered Clouds
6:15 PM66.2 °F48.2 °F52 %29.88 in10.0 miENE (70°)3.5 mphScattered Clouds
6:35 PM64.4 °F48.2 °F56 %29.87 in10.0 miEast (100°)9.2 mphScattered Clouds
6:55 PM64.4 °F48.2 °F56 %29.87 in10.0 miEast (90°)6.9 mphClear
7:15 PM62.6 °F48.2 °F59 %29.87 in10.0 miEast (80°)5.8 mphScattered Clouds
7:35 PM62.6 °F50.0 °F63 %29.87 in10.0 miCalmClear
8:15 PM60.8 °F48.2 °F63 %29.89 in10.0 miCalmPartly Cloudy
8:35 PM60.8 °F48.2 °F63 %29.90 in10.0 miCalmScattered Clouds
8:55 PM59.0 °F48.2 °F67 %29.90 in10.0 miCalmMostly Cloudy
9:15 PM59.0 °F48.2 °F67 %29.91 in10.0 miCalmScattered Clouds
9:35 PM57.2 °F51.8 °F82 %29.92 in10.0 miCalmMostly Cloudy
9:55 PM59.0 °F50.0 °F72 %29.93 in10.0 miCalmOvercast
10:15 PM57.2 °F53.6 °F88 %29.94 in10.0 miWSW (240°)5.8 mphMostly Cloudy
10:35 PM55.4 °F51.8 °F88 %29.95 in10.0 miWest (260°)5.8 mphPartly Cloudy
10:55 PM55.4 °F51.8 °F88 %29.95 in10.0 miCalmMostly Cloudy
11:15 PM55.4 °F53.6 °F94 %29.96 in10.0 miCalmMostly Cloudy
11:35 PM55.4 °F53.6 °F94 %29.96 in10.0 miCalmPartly Cloudy
11:55 PM55.4 °F53.6 °F94 %29.96 in10.0 miCalmPartly Cloudy
Hourly data recorded from KAUN, located miles away from Auburn, California







STORIES FROM OUR PARTNERS